Database contains data from 2013-07-07 to 2026-09-06.
153 measurements (5-min interval)
| Time | Temp Β°C | Dew Β°C | Humid % | Wind m/s | Gust m/s | Dir Β° | Rain mm | Press. hPa | UV | Solar W/mΒ² |
|---|---|---|---|---|---|---|---|---|---|---|
| 00:00 | 12,1 | 11,0 | 93 | 0,0 | 0,4 | β | 0,00 | 1 012,9 | 0,0 | 0 |
| 00:05 | 12,1 | 11,0 | 93 | 0,0 | 0,9 | β | 0,00 | 1 012,9 | 0,0 | 0 |
| 00:10 | 12,1 | 11,0 | 93 | 0,0 | 0,0 | β | 0,00 | 1 012,9 | 0,0 | 0 |
| 00:15 | 12,0 | 10,9 | 93 | 0,0 | 0,0 | β | 0,00 | 1 013,0 | 0,0 | 0 |
| 00:20 | 12,0 | 10,9 | 93 | 0,0 | 0,0 | β | 0,00 | 1 013,0 | 0,0 | 0 |
| 00:25 | 12,0 | 10,9 | 93 | 0,0 | 0,0 | β | 0,00 | 1 013,0 | 0,0 | 0 |
| 00:30 | 12,0 | 10,9 | 93 | 0,0 | 0,0 | β | 0,00 | 1 013,2 | 0,0 | 0 |
| 00:35 | 12,0 | 10,9 | 93 | 1,3 | 4,0 | 293 | 0,00 | 1 013,2 | 0,0 | 0 |
| 00:40 | 12,0 | 10,9 | 93 | 0,4 | 1,3 | 293 | 0,00 | 1 013,2 | 0,0 | 0 |
| 00:45 | 12,0 | 10,9 | 93 | 0,0 | 1,3 | β | 0,00 | 1 013,4 | 0,0 | 0 |
| 00:50 | 12,0 | 10,9 | 93 | 0,0 | 0,9 | β | 0,00 | 1 013,4 | 0,0 | 0 |
| 00:55 | 11,9 | 10,8 | 93 | 0,4 | 0,9 | 293 | 0,00 | 1 013,4 | 0,0 | 0 |
| 01:00 | 11,9 | 10,8 | 93 | 0,0 | 0,9 | β | 0,00 | 1 013,6 | 0,0 | 0 |
| 01:05 | 11,8 | 10,7 | 93 | 0,4 | 1,3 | 293 | 0,00 | 1 013,6 | 0,0 | 0 |
| 01:10 | 11,8 | 10,7 | 93 | 0,0 | 0,9 | β | 0,00 | 1 013,6 | 0,0 | 0 |
| 01:15 | 11,7 | 10,8 | 94 | 0,0 | 0,4 | β | 0,00 | 1 014,0 | 0,0 | 0 |
| 01:20 | 11,7 | 10,8 | 94 | 0,0 | 0,0 | β | 0,00 | 1 014,0 | 0,0 | 0 |
| 01:25 | 11,7 | 10,7 | 94 | 0,0 | 0,0 | β | 0,00 | 1 014,0 | 0,0 | 0 |
| 01:30 | 11,6 | 10,7 | 94 | 0,0 | 0,0 | β | 0,00 | 1 014,1 | 0,0 | 0 |
| 01:35 | 11,6 | 10,7 | 94 | 0,0 | 0,0 | β | 0,00 | 1 014,1 | 0,0 | 0 |
| 01:40 | 11,7 | 10,7 | 94 | 0,0 | 0,0 | β | 0,25 | 1 014,1 | 0,0 | 0 |
| 01:45 | 11,6 | 10,7 | 94 | 0,0 | 0,0 | β | 0,00 | 1 014,1 | 0,0 | 0 |
| 01:50 | 11,6 | 10,6 | 94 | 0,0 | 0,0 | β | 0,00 | 1 014,1 | 0,0 | 0 |
| 01:55 | 11,6 | 10,7 | 94 | 0,0 | 0,0 | β | 0,00 | 1 014,1 | 0,0 | 0 |
| 02:00 | 11,6 | 10,7 | 94 | 0,0 | 0,0 | β | 0,00 | 1 014,2 | 0,0 | 0 |
| 02:05 | 11,6 | 10,7 | 94 | 0,0 | 0,0 | β | 0,00 | 1 014,2 | 0,0 | 0 |
| 02:10 | 11,5 | 10,6 | 94 | 0,0 | 0,0 | β | 0,00 | 1 014,2 | 0,0 | 0 |
| 02:15 | 11,5 | 10,7 | 95 | 0,4 | 0,9 | 293 | 0,00 | 1 014,5 | 0,0 | 0 |
| 02:20 | 11,5 | 10,7 | 95 | 0,0 | 0,0 | β | 0,00 | 1 014,5 | 0,0 | 0 |
| 02:25 | 11,6 | 10,8 | 95 | 0,0 | 0,0 | β | 0,00 | 1 014,5 | 0,0 | 0 |
| 02:30 | 11,6 | 10,7 | 94 | 0,0 | 0,0 | β | 0,00 | 1 014,6 | 0,0 | 0 |
| 02:35 | 11,6 | 10,8 | 95 | 0,0 | 0,0 | β | 0,00 | 1 014,6 | 0,0 | 0 |
| 02:40 | 11,6 | 10,8 | 95 | 0,0 | 0,0 | β | 0,00 | 1 014,6 | 0,0 | 0 |
| 02:45 | 11,6 | 10,8 | 95 | 0,0 | 0,0 | β | 0,00 | 1 014,6 | 0,0 | 0 |
| 02:50 | 11,6 | 10,8 | 95 | 0,0 | 0,0 | β | 0,25 | 1 014,6 | 0,0 | 0 |
| 02:55 | 11,6 | 10,8 | 95 | 0,0 | 0,0 | β | 1,02 | 1 014,6 | 0,0 | 0 |
| 03:00 | 11,6 | 10,8 | 95 | 0,0 | 0,9 | β | 0,25 | 1 014,6 | 0,0 | 0 |
| 03:05 | 11,6 | 10,8 | 95 | 0,0 | 0,9 | β | 0,25 | 1 014,6 | 0,0 | 0 |
| 03:10 | 11,6 | 10,8 | 95 | 0,4 | 2,2 | 270 | 0,00 | 1 014,6 | 0,0 | 0 |
| 03:15 | 11,6 | 10,8 | 95 | 0,9 | 1,8 | 270 | 0,25 | 1 014,8 | 0,0 | 0 |
| 03:20 | 11,7 | 10,9 | 95 | 0,4 | 1,3 | 270 | 0,00 | 1 014,8 | 0,0 | 0 |
| 03:25 | 11,7 | 10,9 | 95 | 0,0 | 0,0 | β | 0,00 | 1 014,8 | 0,0 | 0 |
| 03:30 | 11,6 | 10,8 | 95 | 0,0 | 0,0 | β | 0,00 | 1 014,9 | 0,0 | 0 |
| 03:35 | 11,6 | 10,8 | 95 | 0,0 | 0,0 | β | 0,00 | 1 014,9 | 0,0 | 0 |
| 03:40 | 11,6 | 10,8 | 95 | 0,0 | 0,4 | β | 0,00 | 1 014,9 | 0,0 | 0 |
| 03:45 | 11,6 | 10,8 | 95 | 0,0 | 0,0 | β | 0,00 | 1 015,1 | 0,0 | 0 |
| 03:50 | 11,6 | 10,8 | 95 | 0,0 | 0,0 | β | 0,00 | 1 015,1 | 0,0 | 0 |
| 03:55 | 11,6 | 10,8 | 95 | 0,0 | 0,0 | β | 0,00 | 1 015,1 | 0,0 | 0 |
| 04:00 | 11,6 | 10,8 | 95 | 0,0 | 0,0 | β | 0,00 | 1 015,1 | 0,0 | 0 |
| 04:05 | 11,6 | 10,8 | 95 | 0,0 | 0,0 | β | 0,00 | 1 015,1 | 0,0 | 0 |
| 04:10 | 11,6 | 10,8 | 95 | 0,0 | 0,0 | β | 0,00 | 1 015,1 | 0,0 | 0 |
| 04:15 | 11,6 | 10,8 | 95 | 0,0 | 0,0 | β | 0,00 | 1 015,1 | 0,0 | 0 |
| 04:20 | 11,6 | 10,8 | 95 | 0,0 | 0,0 | β | 0,00 | 1 015,1 | 0,0 | 0 |
| 04:25 | 11,5 | 10,7 | 95 | 0,0 | 0,0 | β | 0,00 | 1 015,1 | 0,0 | 0 |
| 04:30 | 11,4 | 10,6 | 95 | 0,0 | 0,0 | β | 0,00 | 1 015,1 | 0,0 | 0 |
| 04:35 | 11,3 | 10,6 | 95 | 0,0 | 0,0 | β | 0,00 | 1 015,1 | 0,0 | 0 |
| 04:40 | 11,4 | 10,7 | 95 | 0,0 | 0,0 | β | 0,00 | 1 015,1 | 0,0 | 0 |
| 04:45 | 11,6 | 10,8 | 95 | 0,0 | 0,0 | β | 0,00 | 1 015,3 | 0,0 | 0 |
| 04:50 | 11,5 | 10,7 | 95 | 0,0 | 0,0 | β | 0,00 | 1 015,3 | 0,0 | 0 |
| 04:55 | 11,4 | 10,7 | 95 | 0,4 | 1,3 | 270 | 0,00 | 1 015,3 | 0,0 | 0 |
| 05:00 | 11,4 | 10,7 | 95 | 0,4 | 1,3 | 270 | 0,00 | 1 015,2 | 0,0 | 0 |
| 05:05 | 11,5 | 10,7 | 95 | 0,0 | 0,0 | β | 0,00 | 1 015,2 | 0,0 | 0 |
| 05:10 | 11,6 | 10,8 | 95 | 0,0 | 0,0 | β | 0,00 | 1 015,2 | 0,0 | 0 |
| 05:15 | 11,6 | 10,8 | 95 | 0,0 | 0,0 | β | 0,00 | 1 015,3 | 0,0 | 0 |
| 05:20 | 11,6 | 10,8 | 95 | 0,0 | 0,0 | β | 0,00 | 1 015,3 | 0,0 | 0 |
| 05:25 | 11,6 | 10,8 | 95 | 0,0 | 0,0 | β | 0,00 | 1 015,3 | 0,0 | 0 |
| 05:30 | 11,6 | 10,8 | 95 | 0,0 | 0,0 | β | 0,00 | 1 015,4 | 0,0 | 0 |
| 05:35 | 11,6 | 10,8 | 95 | 0,0 | 0,0 | β | 0,00 | 1 015,4 | 0,0 | 0 |
| 05:40 | 11,6 | 10,8 | 95 | 0,0 | 0,0 | β | 0,00 | 1 015,4 | 0,0 | 0 |
| 05:45 | 11,6 | 10,8 | 95 | 0,0 | 0,0 | β | 0,00 | 1 015,3 | 0,0 | 0 |
| 05:50 | 11,4 | 10,7 | 95 | 0,0 | 0,0 | β | 0,00 | 1 015,3 | 0,0 | 0 |
| 05:55 | 11,4 | 10,6 | 95 | 0,4 | 0,9 | 270 | 0,00 | 1 015,3 | 0,0 | 0 |
| 06:00 | 11,4 | 10,6 | 95 | 0,9 | 1,3 | 270 | 0,00 | 1 015,5 | 0,0 | 0 |
| 06:05 | 11,4 | 10,6 | 95 | 0,0 | 0,4 | β | 0,00 | 1 015,5 | 0,0 | 0 |
| 06:10 | 11,4 | 10,8 | 96 | 0,0 | 0,9 | β | 0,00 | 1 015,5 | 0,0 | 0 |
| 06:15 | 11,3 | 10,6 | 95 | 0,4 | 1,3 | 270 | 0,00 | 1 015,5 | 0,0 | 0 |
| 06:20 | 11,3 | 10,7 | 96 | 0,4 | 1,3 | 270 | 0,00 | 1 015,5 | 0,0 | 0 |
| 06:25 | 11,3 | 10,7 | 96 | 0,0 | 0,9 | β | 0,00 | 1 015,5 | 0,0 | 0 |
| 06:30 | 11,3 | 10,7 | 96 | 0,4 | 1,8 | 270 | 0,00 | 1 015,3 | 0,0 | 0 |
| 06:35 | 11,3 | 10,7 | 96 | 1,3 | 1,8 | 270 | 0,00 | 1 015,3 | 0,0 | 0 |
| 06:40 | 11,3 | 10,7 | 96 | 1,3 | 2,2 | 270 | 0,00 | 1 015,3 | 0,0 | 0 |
| 06:45 | 11,3 | 10,7 | 96 | 0,9 | 1,8 | 270 | 0,00 | 1 015,5 | 0,0 | 0 |
| 06:50 | 11,3 | 10,7 | 96 | 0,4 | 1,3 | 270 | 0,00 | 1 015,5 | 0,0 | 0 |
| 06:55 | 11,3 | 10,7 | 96 | 1,3 | 1,8 | 270 | 0,00 | 1 015,5 | 0,0 | 3 |
| 07:00 | 11,3 | 10,7 | 96 | 0,9 | 1,8 | 270 | 0,00 | 1 015,6 | 0,0 | 5 |
| 07:05 | 11,3 | 10,7 | 96 | 0,9 | 1,3 | 270 | 0,00 | 1 015,6 | 0,0 | 6 |
| 07:10 | 11,4 | 10,8 | 96 | 0,9 | 1,3 | 270 | 0,00 | 1 015,6 | 0,0 | 11 |
| 07:15 | 11,4 | 10,8 | 96 | 0,9 | 1,3 | 270 | 0,00 | 1 015,6 | 0,0 | 13 |
| 07:20 | 11,5 | 10,9 | 96 | 0,9 | 1,3 | 270 | 0,00 | 1 015,6 | 0,0 | 13 |
| 07:25 | 11,5 | 10,9 | 96 | 0,4 | 0,9 | 270 | 0,00 | 1 015,6 | 0,0 | 11 |
| 07:30 | 11,5 | 10,9 | 96 | 0,0 | 0,9 | β | 0,00 | 1 015,7 | 0,0 | 11 |
| 07:35 | 11,6 | 10,9 | 96 | 0,4 | 1,8 | 270 | 0,25 | 1 015,7 | 0,0 | 8 |
| 07:40 | 11,6 | 11,0 | 96 | 0,9 | 3,1 | 270 | 0,00 | 1 015,7 | 0,0 | 7 |
| 07:45 | 11,6 | 10,9 | 96 | 0,4 | 3,1 | 270 | 0,25 | 1 016,0 | 0,0 | 12 |
| 07:50 | 11,5 | 10,9 | 96 | 0,4 | 1,3 | 270 | 0,00 | 1 016,0 | 0,0 | 21 |
| 07:55 | 11,4 | 10,7 | 95 | 0,9 | 2,7 | 315 | 0,00 | 1 016,0 | 0,0 | 31 |
| 08:00 | 11,3 | 10,5 | 95 | 0,9 | 2,2 | 315 | 0,00 | 1 015,8 | 0,0 | 30 |
| 08:05 | 11,2 | 10,6 | 96 | 0,0 | 0,9 | β | 0,00 | 1 015,8 | 0,0 | 28 |
| 08:10 | 11,1 | 10,3 | 95 | 0,4 | 0,9 | 315 | 0,00 | 1 015,8 | 0,0 | 37 |
| 08:15 | 11,1 | 10,5 | 96 | 0,0 | 0,0 | β | 0,00 | 1 016,0 | 0,2 | 60 |
| 08:20 | 11,2 | 10,5 | 95 | 0,0 | 0,0 | β | 0,00 | 1 016,0 | 0,5 | 80 |
| 08:25 | 11,2 | 10,6 | 96 | 0,0 | 0,0 | β | 0,00 | 1 016,0 | 0,5 | 66 |
| 08:30 | 11,2 | 10,6 | 96 | 0,0 | 0,0 | β | 0,00 | 1 016,2 | 0,5 | 75 |
| 08:35 | 11,3 | 10,6 | 95 | 0,0 | 0,0 | β | 0,00 | 1 016,2 | 0,6 | 114 |
| 08:40 | 11,4 | 10,7 | 95 | 0,0 | 0,4 | β | 0,00 | 1 016,2 | 0,6 | 151 |
| 08:45 | 11,8 | 11,0 | 95 | 0,0 | 0,0 | β | 0,00 | 1 016,2 | 0,6 | 194 |
| 08:50 | 11,8 | 11,0 | 95 | 0,0 | 0,0 | β | 0,00 | 1 016,2 | 0,6 | 142 |
| 08:55 | 12,0 | 11,2 | 95 | 0,0 | 0,0 | β | 0,00 | 1 016,2 | 0,7 | 169 |
| 09:00 | 12,2 | 11,4 | 95 | 0,0 | 0,0 | β | 0,00 | 1 016,4 | 0,7 | 232 |
| 09:05 | 12,3 | 11,5 | 95 | 0,0 | 0,0 | β | 0,00 | 1 016,4 | 0,7 | 171 |
| 09:10 | 12,5 | 11,7 | 95 | 0,0 | 0,0 | β | 0,00 | 1 016,4 | 0,7 | 128 |
| 09:15 | 12,6 | 11,8 | 95 | 0,0 | 0,0 | β | 0,00 | 1 016,6 | 0,7 | 106 |
| 09:20 | 12,3 | 11,5 | 95 | 0,0 | 0,0 | β | 0,00 | 1 016,6 | 0,7 | 123 |
| 09:25 | 12,3 | 11,4 | 94 | 0,0 | 0,0 | β | 0,00 | 1 016,6 | 0,8 | 136 |
| 09:30 | 12,4 | 11,5 | 94 | 0,0 | 0,0 | β | 0,00 | 1 016,3 | 0,9 | 156 |
| 09:35 | 12,7 | 11,7 | 94 | 0,0 | 0,0 | β | 0,00 | 1 016,3 | 1,0 | 234 |
| 09:40 | 12,8 | 11,8 | 94 | 0,0 | 0,0 | β | 0,00 | 1 016,3 | 1,1 | 353 |
| 09:45 | 13,1 | 11,9 | 93 | 0,0 | 0,0 | β | 0,00 | 1 016,3 | 1,1 | 326 |
| 09:50 | 12,9 | 11,7 | 92 | 0,0 | 1,3 | β | 0,00 | 1 016,3 | 1,0 | 223 |
| 09:55 | 13,1 | 11,5 | 90 | 0,0 | 0,4 | β | 0,00 | 1 016,3 | 0,9 | 179 |
| 10:00 | 13,0 | 11,4 | 90 | 0,0 | 1,3 | β | 0,00 | 1 016,4 | 1,0 | 221 |
| 10:05 | 13,3 | 11,6 | 89 | 0,0 | 0,9 | β | 0,00 | 1 016,4 | 1,0 | 198 |
| 10:10 | 13,4 | 11,5 | 88 | 0,4 | 1,8 | 315 | 0,00 | 1 016,4 | 1,0 | 186 |
| 10:15 | 13,6 | 11,8 | 89 | 0,4 | 1,3 | 315 | 0,00 | 1 016,6 | 1,1 | 189 |
| 10:20 | 13,6 | 11,8 | 89 | 0,0 | 0,9 | β | 0,00 | 1 016,6 | 1,1 | 167 |
| 10:25 | 13,7 | 11,9 | 89 | 0,0 | 1,3 | β | 0,00 | 1 016,6 | 1,1 | 193 |
| 10:30 | 13,6 | 11,8 | 89 | 0,0 | 0,4 | β | 0,00 | 1 016,5 | 1,3 | 231 |
| 10:35 | 13,7 | 11,9 | 89 | 0,4 | 2,2 | 270 | 0,00 | 1 016,5 | 1,3 | 239 |
| 10:40 | 13,8 | 11,7 | 87 | 0,4 | 1,8 | 270 | 0,00 | 1 016,5 | 1,5 | 334 |
| 10:45 | 13,8 | 11,7 | 87 | 0,0 | 0,9 | β | 0,00 | 1 016,6 | 1,3 | 211 |
| 10:50 | 13,8 | 11,7 | 87 | 0,0 | 0,9 | β | 0,00 | 1 016,6 | 1,3 | 171 |
| 10:55 | 13,6 | 11,5 | 87 | 0,0 | 0,0 | β | 0,00 | 1 016,6 | 1,4 | 143 |
| 11:00 | 13,4 | 11,4 | 88 | 0,4 | 0,9 | 270 | 0,00 | 1 016,6 | 1,5 | 206 |
| 11:05 | 13,7 | 11,6 | 87 | 0,0 | 0,9 | β | 0,00 | 1 016,6 | 1,7 | 330 |
| 11:10 | 14,0 | 11,9 | 87 | 0,0 | 0,9 | β | 0,00 | 1 016,6 | 1,6 | 318 |
| 11:15 | 14,3 | 11,7 | 84 | 0,4 | 1,8 | 270 | 0,00 | 1 016,6 | 1,5 | 296 |
| 11:20 | 14,4 | 12,0 | 85 | 0,4 | 1,3 | 270 | 0,00 | 1 016,6 | 1,6 | 345 |
| 11:25 | 14,2 | 11,1 | 82 | 0,9 | 1,8 | 270 | 0,00 | 1 016,6 | 1,3 | 189 |
| 11:30 | 13,9 | 11,3 | 84 | 0,0 | 0,4 | β | 0,00 | 1 016,6 | 1,2 | 158 |
| 11:35 | 13,8 | 11,5 | 86 | 0,0 | 1,8 | β | 0,00 | 1 016,6 | 1,2 | 171 |
| 11:40 | 13,7 | 11,6 | 87 | 0,9 | 2,2 | 158 | 0,00 | 1 016,6 | 0,9 | 122 |
| 11:45 | 13,7 | 11,5 | 87 | 0,4 | 1,8 | 135 | 0,00 | 1 016,7 | 0,9 | 132 |
| 11:50 | 13,5 | 11,6 | 88 | 0,4 | 1,3 | 135 | 0,00 | 1 016,7 | 1,2 | 163 |
| 11:55 | 13,5 | 11,4 | 87 | 0,9 | 3,6 | 135 | 0,00 | 1 016,7 | 1,2 | 160 |
| 12:00 | 13,7 | 11,0 | 84 | 0,9 | 3,1 | 248 | 0,00 | 1 016,7 | 1,2 | 154 |
| 12:05 | 13,8 | 11,0 | 83 | 0,9 | 3,1 | 225 | 0,00 | 1 016,7 | 1,2 | 153 |
| 12:10 | 13,7 | 10,9 | 83 | 0,9 | 2,7 | 225 | 0,00 | 1 016,7 | 1,3 | 165 |
| 12:15 | 13,7 | 10,9 | 83 | 0,9 | 1,8 | 225 | 0,00 | 1 016,7 | 1,4 | 176 |
| 12:20 | 13,9 | 11,0 | 83 | 0,9 | 2,2 | 225 | 0,00 | 1 016,7 | 1,4 | 191 |
| 12:25 | 13,8 | 11,0 | 83 | 0,9 | 2,2 | 158 | 0,00 | 1 016,7 | 1,5 | 185 |
| 12:30 | 13,9 | 10,9 | 82 | 0,4 | 2,7 | 158 | 0,00 | 1 016,8 | 1,5 | 196 |
| 12:35 | 13,9 | 10,7 | 81 | 0,4 | 2,2 | 180 | 0,00 | 1 016,8 | 1,6 | 219 |
| 12:40 | 14,0 | 11,0 | 82 | 0,4 | 2,2 | 203 | 0,00 | 1 016,8 | 1,6 | 210 |